This is the latest recevied weather packets stored in our database for station/object N4HAC. If no packets are shown the sender has not sent any weather packets the latest 1 day(s).
| Time | Temp. | Humidity | Pressure | Rain* | Wind** | Luminosity | Snow |
|---|---|---|---|---|---|---|---|
| 1777968895 | 11.67° C | 88% | 1005.8 hPa | 0 mm | 0 m/s | 0 W/m² | - |
| 1777968592 | 11.67° C | 89% | 1006 hPa | 0 mm | 0 m/s | 0 W/m² | - |
| 1777968288 | 11.67° C | 91% | 1005.8 hPa | 0 mm | 0.45 m/s, 277° | 0 W/m² | - |
| 1777967984 | 10.56° C | 92% | 1005.7 hPa | 0 mm | 0.89 m/s, 353° | 0 W/m² | - |
| 1777967681 | 11.11° C | 92% | 1005.7 hPa | 0 mm | 0.89 m/s, 53° | 0 W/m² | - |
| 1777967378 | 11.11° C | 91% | 1005.5 hPa | 0 mm | 1.34 m/s, 110° | 0 W/m² | - |
| 1777967076 | 11.11° C | 91% | 1005.4 hPa | 0 mm | 0.45 m/s, 4° | 0 W/m² | - |
| 1777966772 | 11.11° C | 94% | 1005.5 hPa | 0 mm | 0.89 m/s, 85° | 0 W/m² | - |
| 1777966470 | 10.56° C | 96% | 1005.5 hPa | 0 mm | 0.89 m/s, 18° | 0 W/m² | - |
| 1777966167 | 10° C | 95% | 1005.5 hPa | 0 mm | 0.45 m/s, 13° | 0 W/m² | - |
| 1777965863 | 9.44° C | 94% | 1005.6 hPa | 0 mm | 1.34 m/s, 21° | 0 W/m² | - |
| 1777965559 | 10.56° C | 94% | 1005.7 hPa | 0 mm | 1.34 m/s, 40° | 0 W/m² | - |
| 1777965256 | 10.56° C | 95% | 1005.6 hPa | 0 mm | 0 m/s | 0 W/m² | - |
| 1777964958 | 10.56° C | 94% | 1005.5 hPa | 0 mm | 0.89 m/s, 34° | 0 W/m² | - |
| 1777964650 | 10.56° C | 94% | 1005.4 hPa | 0 mm | 0.89 m/s, 4° | 0 W/m² | - |
| 1777964346 | 10.56° C | 95% | 1005.3 hPa | 0 mm | 0.45 m/s, 348° | 0 W/m² | - |
| 1777964042 | 10.56° C | 95% | 1005.3 hPa | 0 mm | 0.89 m/s, 51° | 0 W/m² | - |
| 1777963739 | 10.56° C | 95% | 1005.4 hPa | 0 mm | 0.89 m/s, 359° | 0 W/m² | - |
| 1777963436 | 10.56° C | 94% | 1005.6 hPa | 0 mm | 0.89 m/s, 37° | 0 W/m² | - |
| 1777963135 | 10.56° C | 94% | 1005.6 hPa | 0 mm | 0 m/s | 0 W/m² | - |
| 1777962830 | 10.56° C | 95% | 1005.5 hPa | 0 mm | 0.89 m/s, 6° | 0 W/m² | - |
| 1777962527 | 10.56° C | 96% | 1005.6 hPa | 0 mm | 0.89 m/s, 4° | 0 W/m² | - |
| 1777962224 | 10.56° C | 96% | 1005.5 hPa | 0 mm | 1.34 m/s, 349° | 0 W/m² | - |
| 1777961921 | 10° C | 95% | 1005.6 hPa | 0 mm | 0.89 m/s, 77° | 0 W/m² | - |
| 1777961619 | 10.56° C | 96% | 1005.4 hPa | 0 mm | 0.89 m/s, 4° | 0 W/m² | - |
* Rain latest hour (hover to see other rain measurements)
** Current wind speed in m/s (hover to see current wind gust speed)